Regional Weather Roundup
Issued by NWS State College, PA

Home | Current Version | Previous Version | Text Only | Print | Product List | Glossary On
Versions: 1 2 3 4 5 6 7 8 9 10 11 12 13 14 15 16 17 18 19 20 21 22 23 24 25 26 27 28 29 30 31 32 33 34 35 36 37 38 39 40 41 42 43 44 45 46 47 48 49 50
000
ASUS41 KCTP 201503
RWRCTP

REGIONAL WEATHER ROUNDUP
NATIONAL WEATHER SERVICE STATE COLLEGE PA
1100 AM EDT WED AUG 20 2014

Note: "fair" indicates few or no clouds below 12,000 feet with no
significant weather and/or obstructions to visibility.

* = STATION THAT DOES NOT REPORT PRECIPITATION /E.G. RAIN...SNOW...ETC/
    THUNDER OR FOG.

PAZ002>004-007>009-013>016-020>023-029>032-201600-
WESTERN PENNSYLVANIA

CITY           SKY/WX    TMP DP  RH WIND       PRES   REMARKS
ERIE           CLOUDY    70  64  81 S10       29.90R
MEADVILLE      CLOUDY    66  63  90 S7        29.93F
FRANKLIN*      CLOUDY    64  63  94 SE9       29.96F
NEW CASTLE     NOT AVBL
BEAVER COUNTY  CLOUDY    66  64  94 S9        29.94F
BUTLER*        CLOUDY    66  63  88 S8        29.97S
PITTSBURGH INT CLOUDY    67  65  93 VRB6      29.94F
PITTSBURGH     CLOUDY    66  63  90 SE9       29.95F
INDIANA*       PTSUNNY   66  64  94 S8        30.04F FOG
LATROBE        LGT RAIN  64  64 100 VRB7      29.99F FOG
WASHINGTON CO* CLOUDY    66  64  94 SE7       29.97S
$$

PAZ004>006-010>012-017>019-024>028-033>037-041-042-045-046-049>053-201600-
CENTRAL PENNSYLVANIA

CITY           SKY/WX    TMP DP  RH WIND       PRES   REMARKS
BRADFORD       CLOUDY    68  61  78 S7        30.00R
DUBOIS         CLOUDY    67  64  90 SE7       29.98F
CLEARFIELD     LGT RAIN  67  66  97 SW5       30.00S
JOHNSTOWN      RAIN      64  62  93 NW10      30.04R FOG
ALTOONA        LGT RAIN  71  68  90 S7        30.00S
STATE COLLEGE  CLOUDY    72  68  88 S6        29.99R FOG
WILLIAMSPORT   CLOUDY    73  65  75 E8        29.97R
SELINSGROVE    CLOUDY    76  67  73 S7        29.99R HAZE
FT INDIANTOWN  CLOUDY    73  67  80 S3        30.01S
CAPITAL CITY   CLOUDY    74  64  71 S8        30.00R
HARRISBURG     PTSUNNY   78  66  66 SE5       29.99R
YORK           MOSUNNY   79  66  64 VRB5      30.00R
$$

PAZ038>040-043-044-047-048-054-055-060>062-067>071-201600-
EASTERN PENNSYLVANIA

CITY           SKY/WX    TMP DP  RH WIND       PRES   REMARKS
SCRANTON       CLOUDY    77  63  61 VRB5      30.00R
MOUNT POCONO   MOSUNNY   72  61  68 S8        30.06R
ALLENTOWN      MOSUNNY   79  63  57 S6        30.01S
QUAKERTOWN*    MOSUNNY   77  64  65 MISG      30.03S
READING        PTSUNNY   80  61  52 S8        30.00R
LANCASTER      MOSUNNY   77  62  59 S6        30.01R
COATESVILLE    MOSUNNY   75  64  69 SW3       30.04R
POTTSTOWN      PTSUNNY   77  63  61 SW5       30.03R
BLUE BELL      MOSUNNY   79  64  61 CALM      30.01S
DOYLESTOWN     PTSUNNY   74  63  68 S6        30.02R
WILLOW GROVE   NOT AVBL
NORTH PHILA    MOSUNNY   79  60  52 VRB5      30.03R
PHILADELPHIA   PTSUNNY   78  61  55 SE3       30.01S
$$



USA.gov is the U.S. government's official web portal to all federal, state and local government web resources and services.